Regional Weather Roundup
Issued by NWS

Home | Current Version | Previous Version | Text Only | Print | Product List | Glossary On
Versions: 1 2 3 4 5 6 7 8 9 10 11 12 13 14 15 16 17 18 19 20 21 22 23 24 25 26 27 28 29 30 31 32 33 34 35 36 37 38 39
000
ASUS46 KSEW 272310
RWRWA

WASHINGTON REGIONAL WEATHER ROUNDUP
NATIONAL WEATHER SERVICE SEATTLE WA
300 PM PST SAT DEC 27 2014

NOTE:"FAIR" INDICATES FEW OR NO CLOUDS BELOW 12,000 FEET WITH NO
SIGNIFICANT WEATHER AND/OR OBSTRUCTIONS TO VISIBILITY.

WAZ505-507>509-280000-
SEATTLE, TACOMA, EVERETT, AND VICINITY

CITY           SKY/WX    TMP DP  RH WIND       PRES   REMARKS
EVERETT        LGT RAIN  43  40  89 N6        30.04R
BOEING FIELD   MOCLDY    52  42  69 SW9G18    30.03S
RENTON         CLOUDY    50  44  80 S10       30.03R
SEATAC AIRPORT MOCLDY    49  43  80 SW10G21   30.03S
JBLM-MCCHORD   LGT RAIN  46  46 100 SW14      30.06F
PUYALLUP       NOT AVBL
BREMERTON      MOCLDY    48  45  87 SW17G23   30.05S
JBLM-FT LEWIS  CLOUDY    46  45  93 SW15G23   30.07S
TACOMA NARROWS CLOUDY    48  43  82 SW13      30.05F
$$

WAZ001-503-506-510-514-515-280000-
NORTH INTERIOR

CITY           SKY/WX    TMP DP  RH WIND       PRES   REMARKS
BELLINGHAM     CLOUDY    49  40  71 VRB6      30.00R
FRIDAY HARBOR  CLEAR     46  36  68 SW8       30.02R
EASTSOUND      CLEAR     48  37  66 SW6       29.99R
PORT ANGELES   CLEAR     48  32  53 MISG      30.04R
NAS WHIDBEY    PTCLDY    50  39  66 W22G37    30.04R
ARLINGTON      CLOUDY    43  39  87 N6        30.05F
BURLINGTON     CLEAR     46  41  81 W10G17    30.03R
$$

WAZ020-022-039-040-504-511-512-280000-
SOUTHWEST INTERIOR

CITY           SKY/WX    TMP DP  RH WIND       PRES   REMARKS
SHELTON        CLOUDY    46  42  86 SW14      30.03F
OLYMPIA        LGT RAIN  47  42  83 W6G18     30.10R
CHEHALIS       LGT RAIN  48  46  93 W6        30.11S
KELSO          CLOUDY    45  41  87 SE7       30.20F
VANCOUVER      LGT RAIN  44  40  85 SE6       30.19S FOG
SCAPPOOSE, OR  LGT RAIN  46  43  89 CALM      30.18S
PORTLAND, OR   LGT RAIN  44  41  89 W6        30.21R
$$

WAZ021-516-517-280000-
WASHINGTON COAST

CITY           SKY/WX    TMP DP  RH WIND       PRES   REMARKS
FORKS          LGT RAIN  45  43  93 W9        30.09S FOG
HOQUIAM        CLOUDY    48  45  89 W14       30.13R
ASTORIA, OR    LGT RAIN  49  46  90 W15       30.16F FOG
$$

WAZ019-023-024-040-518-519-280000-
CASCADE MOUNTAINS AND COLUMBIA GORGE

CITY           SKY/WX    TMP DP  RH WIND       PRES   REMARKS
TROUTDALE, OR  LGT RAIN  46  40  79 SW8       30.18S
THE DALLES, OR CLOUDY    46  38  73 SW5       30.11F
$$

WAZ026-027-041>044-520-521-280000-
EAST SLOPES

CITY           SKY/WX    TMP DP  RH WIND       PRES   REMARKS
OMAK           CLOUDY    33  28  81 S7        29.95F
WENATCHEE      PTCLDY    36  28  73 W3        29.93F
ELLENSBURG     PTCLDY    41  32  70 SW5       29.94F
YAKIMA         PTCLDY    43  30  60 CALM      29.99F
$$

WAZ028-034-035-280000-
COLUMBIA BASIN

CITY           SKY/WX    TMP DP  RH WIND       PRES   REMARKS
EPHRATA        CLEAR     39  32  76 CALM      29.93F
MOSES LAKE     CLEAR     42  34  73 S10       29.95F
PASCO          MOCLDY    47  35  63 SW21G30   30.03F
HERMISTON, OR  CLOUDY    43  38  82 CALM      30.06F
$$

WAZ036>038-280000-
NORTHEAST WASHINGTON

CITY           SKY/WX    TMP DP  RH WIND       PRES   REMARKS
SPOKANE GEIGER LGT SNOW  34  32  92 S18G28    29.92F VSB 1   WCI  23
SPOKANE FELTS  LGT SNOW  34  31  88 CALM      29.96F VSB 1
FAIRCHILD AFB  FLURRIES  33  33  99 S22G28    29.92F WCI  21
COEURDALENE,ID CLOUDY    34  30  86 S10       29.95F WCI  26
DEER PARK      LGT SNOW  32  31  96 S8        29.95F VSB 3/4
$$

WAZ029>033-280000-
SOUTHEAST WASHINGTON

CITY           SKY/WX    TMP DP  RH WIND       PRES   REMARKS
PULLMAN        SNOW      31  29  92 SE16      30.01F VSB 1/2 WCI  20
LEWISTON, ID   CLOUDY    39  29  67 S23G31    30.03F
WALLA WALLA    LGT RAIN  44  36  73 S16       30.05F
PENDLETON, OR  CLOUDY    41  34  76 S17       30.06F
$$


USA.gov is the U.S. government's official web portal to all federal, state and local government web resources and services.